GW3570 Weather Reports


time (UTC)temp
C
wind
direction
speed
KPH
gust
KPH
rain 1hr
cm
rain 24hr
cm
rain mn
cm
humidity
%
barometer
mb
20260906172337 35 28 1.6 1.6 0.00 0.00 0.00 51 1015.8
20260906171832 36 135 4.8 4.8 0.00 0.00 0.00 52 1015.8
20260906171326 36 194 1.6 1.6 0.00 0.00 0.00 54 1015.8
20260906170822 36 50 3.2 3.2 0.00 0.00 0.00 53 1015.9
20260906170318 36 213 0.0 1.6 0.00 0.00 0.00 53 1016.2
20260906165814 35 224 3.2 3.2 0.00 0.00 0.00 54 1016.1
20260906165313 35 35 3.2 4.8 0.00 0.00 0.00 56 1016.2
20260906164808 35 130 1.6 1.6 0.00 0.00 0.00 57 1016.1
20260906164308 35 291 3.2 3.2 0.00 0.00 0.00 57 1016.2
20260906163804 33 165 1.6 3.2 0.00 0.00 0.00 57 1016.2
20260906163300 35 135 0.0 1.6 0.00 0.00 0.00 57 1016.3
20260906162757 35 147 0.0 0.0 0.00 0.00 0.00 57 1016.3
20260906162256 35 78 3.2 3.2 0.00 0.00 0.00 56 1016.3
20260906161756 34 153 1.6 1.6 0.00 0.00 0.00 57 1016.4
20260906161255 35 45 0.0 0.0 0.00 0.00 0.00 56 1016.4
20260906160754 34 161 1.6 1.6 0.00 0.00 0.00 57 1016.3
20260906160249 34 141 1.6 3.2 0.00 0.00 0.00 60 1016.3
20260906155746 34 232 1.6 3.2 0.00 0.00 0.00 58 1016.4
20260906155241 33 157 0.0 1.6 0.00 0.00 0.00 61 1016.2
20260906154737 33 140 0.0 0.0 0.00 0.00 0.00 59 1016.2
20260906154232 33 239 3.2 3.2 0.00 0.00 0.00 62 1016.2
20260906153730 33 138 3.2 3.2 0.00 0.00 0.00 62 1016.2
20260906153226 32 201 3.2 3.2 0.00 0.00 0.00 64 1016.3
20260906152721 33 146 3.2 3.2 0.00 0.00 0.00 63 1016.4
20260906152221 32 185 1.6 1.6 0.00 0.00 0.00 64 1016.3
20260906151715 31 151 0.0 0.0 0.00 0.00 0.00 65 1016.2
20260906151211 32 68 1.6 1.6 0.00 0.00 0.00 67 1016.4
20260906150707 31 356 1.6 1.6 0.00 0.00 0.00 67 1016.4
20260906150201 31 103 1.6 3.2 0.00 0.00 0.00 67 1016.1
20260906145700 31 120 1.6 3.2 0.00 0.00 0.00 66 1016.0
20260906145200 32 22 1.6 1.6 0.00 0.00 0.00 65 1016.2
20260906144700 31 64 1.6 1.6 0.00 0.00 0.00 66 1016.1
20260906144155 31 116 3.2 3.2 0.00 0.00 0.00 70 1016.2
20260906143649 31 163 0.0 0.0 0.00 0.00 0.00 68 1016.3
20260906143147 30 134 1.6 3.2 0.00 0.00 0.00 71 1016.1
20260906142646 30 159 1.6 3.2 0.00 0.00 0.00 70 1016.2
20260906142141 30 62 3.2 3.2 0.00 0.00 0.00 70 1016.2
20260906141640 30 45 0.0 1.6 0.00 0.00 0.00 70 1016.3
20260906141135 31 212 3.2 3.2 0.00 0.00 0.00 69 1016.2
20260906140634 30 80 1.6 1.6 0.00 0.00 0.00 70 1016.2
20260906140129 30 315 0.0 1.6 0.00 0.00 0.00 72 1016.2
20260906135626 28 154 0.0 0.0 0.00 0.00 0.00 74 1016.1
20260906135122 28 9 3.2 4.8 0.00 0.00 0.00 75 1016.2
20260906134618 28 102 1.6 1.6 0.00 0.00 0.00 75 1016.0
20260906134113 28 67 3.2 3.2 0.00 0.00 0.00 76 1016.0
20260906133609 27 343 3.2 4.8 0.00 0.00 0.00 77 1016.0
20260906133109 27 78 0.0 0.0 0.00 0.00 0.00 78 1015.8
20260906132604 27 75 3.2 3.2 0.00 0.00 0.00 79 1016.1
20260906132059 26 29 1.6 1.6 0.00 0.00 0.00 80 1016.0
20260906131554 26 71 1.6 1.6 0.00 0.00 0.00 81 1016.2
20260906131050 26 72 0.0 0.0 0.00 0.00 0.00 82 1016.2
20260906130544 26 303 0.0 0.0 0.00 0.00 0.00 82 1016.2
20260906130039 25 221 0.0 0.0 0.00 0.00 0.00 83 1015.9
20260906125536 25 213 0.0 0.0 0.00 0.00 0.00 83 1016.0
20260906125031 25 165 0.0 0.0 0.00 0.00 0.00 84 1015.8
20260906124526 25 189 0.0 0.0 0.00 0.00 0.00 84 1015.7
20260906124021 25 175 0.0 0.0 0.00 0.00 0.00 85 1015.2
20260906123520 25 198 0.0 0.0 0.00 0.00 0.00 85 1015.3
20260906123015 24 224 0.0 0.0 0.00 0.00 0.00 86 1015.6
20260906122509 24 248 0.0 0.0 0.00 0.00 0.00 86 1015.1
20260906122006 24 323 0.0 0.0 0.00 0.00 0.00 86 1015.1
20260906121501 24 356 0.0 0.0 0.00 0.00 0.00 86 1015.1
20260906120958 24 314 0.0 0.0 0.00 0.00 0.00 86 1015.3
20260906120453 24 260 0.0 0.0 0.00 0.00 0.00 86 1015.5
20260906115949 24 226 0.0 0.0 0.00 0.00 0.00 85 1015.0
20260906115444 25 229 0.0 0.0 0.00 0.00 0.00 84 1015.0
20260906114944 25 76 0.0 0.0 0.00 0.00 0.00 84 1014.9
20260906114439 25 222 0.0 0.0 0.00 0.00 0.00 84 1015.0
20260906113935 24 292 0.0 0.0 0.00 0.00 0.00 84 1014.8
20260906113433 24 285 0.0 0.0 0.00 0.00 0.00 85 1014.9
20260906112929 23 267 0.0 0.0 0.00 0.00 0.00 86 1015.1
20260906112424 23 268 0.0 0.0 0.00 0.00 0.00 87 1015.1
20260906111920 23 290 0.0 0.0 0.00 0.00 0.00 88 1014.8
20260906111419 23 242 0.0 0.0 0.00 0.00 0.00 88 1014.9
20260906110914 23 208 0.0 0.0 0.00 0.00 0.00 88 1014.9
20260906110410 23 252 0.0 0.0 0.00 0.00 0.00 87 1014.9
20260906105909 23 289 0.0 0.0 0.00 0.00 0.00 87 1014.9
20260906105405 23 296 0.0 0.0 0.00 0.00 0.00 87 1014.9
20260906104901 23 296 0.0 0.0 0.00 0.00 0.00 86 1014.9
20260906104359 23 212 0.0 0.0 0.00 0.00 0.00 87 1014.9
20260906103858 23 247 0.0 0.0 0.00 0.00 0.00 87 1014.7
20260906103356 23 182 0.0 0.0 0.00 0.00 0.00 87 1014.8
20260906102852 23 188 0.0 0.0 0.00 0.00 0.00 88 1014.7
20260906102351 23 263 0.0 0.0 0.00 0.00 0.00 89 1014.8
20260906101846 23 216 0.0 0.0 0.00 0.00 0.00 88 1014.8
20260906101341 23 245 0.0 0.0 0.00 0.00 0.00 88 1014.7
20260906100837 23 260 0.0 0.0 0.00 0.00 0.00 89 1014.9
20260906100336 23 281 0.0 0.0 0.00 0.00 0.00 89 1014.8
20260906095831 23 288 0.0 0.0 0.00 0.00 0.00 89 1014.6
20260906095326 23 238 0.0 0.0 0.00 0.00 0.00 91 1014.6
20260906094825 23 248 0.0 0.0 0.00 0.00 0.00 91 1014.6
20260906094320 23 240 0.0 0.0 0.00 0.00 0.00 91 1014.5
20260906093817 24 245 0.0 0.0 0.00 0.00 0.00 91 1014.4
20260906093307 23 289 0.0 0.0 0.00 0.00 0.00 91 1014.3
20260906092802 24 307 0.0 0.0 0.00 0.00 0.00 90 1014.4
20260906092305 23 317 0.0 0.0 0.00 0.00 0.00 90 1014.2
20260906091758 24 293 0.0 0.0 0.00 0.00 0.00 89 1014.4
20260906091254 24 291 0.0 0.0 0.00 0.00 0.00 89 1013.9
20260906090750 24 338 0.0 0.0 0.00 0.00 0.00 89 1014.5
20260906090249 24 320 0.0 0.0 0.00 0.00 0.00 89 1014.2
20260906085749 25 30 0.0 0.0 0.00 0.00 0.00 90 1014.2
20260906085248 24 324 0.0 0.0 0.00 0.00 0.00 89 1014.3
20260906084742 24 340 0.0 0.0 0.00 0.00 0.00 89 1014.5
20260906084236 24 298 0.0 0.0 0.00 0.00 0.00 89 1013.9
20260906083731 25 173 0.0 0.0 0.00 0.00 0.00 89 1014.0
20260906083226 25 232 0.0 0.0 0.00 0.00 0.00 87 1014.0
20260906082721 24 307 0.0 0.0 0.00 0.00 0.00 87 1013.9
20260906082211 25 131 0.0 0.0 0.00 0.00 0.00 88 1013.8
20260906081707 24 277 0.0 0.0 0.00 0.00 0.00 88 1013.9
20260906081156 24 259 0.0 0.0 0.00 0.00 0.00 87 1013.8
20260906080653 24 274 0.0 0.0 0.00 0.00 0.00 87 1013.8
20260906080148 24 265 0.0 0.0 0.00 0.00 0.00 88 1013.9
20260906075642 24 238 0.0 0.0 0.00 0.00 0.00 88 1013.8
20260906075137 24 129 0.0 0.0 0.00 0.00 0.00 89 1013.8
20260906074632 24 182 0.0 0.0 0.00 0.00 0.00 89 1013.7
20260906074131 24 145 0.0 0.0 0.00 0.00 0.00 89 1013.8
20260906073626 24 232 0.0 0.0 0.00 0.00 0.00 90 1013.8
20260906073122 24 250 0.0 0.0 0.00 0.00 0.00 90 1014.0
20260906072617 24 214 0.0 0.0 0.00 0.00 0.00 90 1013.8
20260906072112 24 233 0.0 0.0 0.00 0.00 0.00 89 1014.0
20260906071608 24 262 0.0 0.0 0.00 0.00 0.00 89 1014.0
20260906071103 24 230 0.0 0.0 0.00 0.00 0.00 89 1014.2
20260906070600 24 243 0.0 0.0 0.00 0.00 0.00 89 1013.8
20260906070055 25 247 0.0 0.0 0.00 0.00 0.00 89 1014.0
20260906065554 25 217 0.0 0.0 0.00 0.00 0.00 90 1014.2
20260906065050 25 235 0.0 0.0 0.00 0.00 0.00 90 1014.3
20260906064546 25 232 0.0 0.0 0.00 0.00 0.00 91 1014.3
20260906064040 25 268 0.0 0.0 0.00 0.00 0.00 91 1014.3
20260906063536 25 200 0.0 0.0 0.00 0.00 0.00 91 1014.4
20260906063032 25 204 0.0 0.0 0.00 0.00 0.00 91 1014.4
20260906062527 25 199 0.0 0.0 0.00 0.00 0.00 91 1014.3
20260906062021 25 185 0.0 0.0 0.00 0.00 0.00 91 1014.3
20260906061518 25 200 0.0 0.0 0.00 0.00 0.00 91 1014.6
20260906061017 25 200 0.0 0.0 0.00 0.00 0.00 91 1014.4
20260906060513 25 232 0.0 0.0 0.00 0.00 0.00 91 1014.3
20260906060010 25 245 0.0 0.0 0.00 0.00 0.00 90 1014.5
20260906055505 25 194 0.0 0.0 0.00 0.00 0.00 90 1014.4
20260906055000 25 191 0.0 0.0 0.00 0.00 0.00 90 1014.4
20260906054455 25 199 0.0 0.0 0.00 0.00 0.00 90 1014.6
20260906053951 25 282 0.0 0.0 0.00 0.00 0.00 89 1014.7
20260906053447 25 154 0.0 0.0 0.00 0.00 0.00 89 1014.5
20260906052942 26 219 0.0 0.0 0.00 0.00 0.00 88 1014.4
20260906052438 26 269 0.0 0.0 0.00 0.00 0.00 87 1014.5
20260906051935 26 221 0.0 0.0 0.00 0.00 0.00 87 1014.5
20260906051430 26 217 0.0 0.0 0.00 0.00 0.00 86 1014.4
20260906050926 26 210 0.0 0.0 0.00 0.00 0.00 85 1014.2
20260906050425 26 304 0.0 0.0 0.00 0.00 0.00 85 1014.5
20260906045925 26 332 0.0 0.0 0.00 0.00 0.00 85 1014.6
20260906045423 26 274 0.0 0.0 0.00 0.00 0.00 84 1014.6
20260906044919 26 322 0.0 0.0 0.00 0.00 0.00 83 1014.4
20260906044414 26 315 0.0 0.0 0.00 0.00 0.00 83 1014.6
20260906043910 26 103 0.0 0.0 0.00 0.00 0.00 83 1014.5
20260906043405 26 317 0.0 0.0 0.00 0.00 0.00 82 1014.4
20260906042900 26 260 0.0 0.0 0.00 0.00 0.00 82 1014.6
20260906042359 27 255 0.0 0.0 0.00 0.00 0.00 84 1014.5
20260906041854 27 219 0.0 0.0 0.00 0.00 0.00 84 1014.5
20260906041350 27 168 0.0 0.0 0.00 0.00 0.00 84 1014.4
20260906040845 27 356 0.0 0.0 0.00 0.00 0.00 83 1014.4
20260906040341 27 359 0.0 0.0 0.00 0.00 0.00 83 1014.6
20260906035836 27 266 0.0 0.0 0.00 0.00 0.00 82 1014.4
20260906035331 27 176 0.0 0.0 0.00 0.00 0.00 82 1014.3
20260906034827 27 235 0.0 0.0 0.00 0.00 0.00 81 1014.1
20260906034321 27 153 0.0 0.0 0.00 0.00 0.00 81 1014.3
20260906033817 27 168 0.0 0.0 0.00 0.00 0.00 81 1014.0
20260906033316 27 207 0.0 0.0 0.00 0.00 0.00 80 1013.9
20260906032813 27 159 0.0 0.0 0.00 0.00 0.00 81 1013.9
20260906032308 27 139 0.0 0.0 0.00 0.00 0.00 80 1013.8
20260906031803 27 328 0.0 0.0 0.00 0.00 0.00 77 1013.7
20260906031259 27 266 0.0 0.0 0.00 0.00 0.00 76 1013.9
20260906030758 27 123 0.0 0.0 0.00 0.00 0.00 78 1013.8
20260906030254 28 233 0.0 0.0 0.00 0.00 0.00 79 1013.6
20260906025753 28 140 0.0 0.0 0.00 0.00 0.00 78 1013.7
20260906025248 28 151 0.0 0.0 0.00 0.00 0.00 77 1013.7
20260906024747 28 140 0.0 0.0 0.00 0.00 0.00 75 1013.8
20260906024245 28 63 0.0 0.0 0.00 0.00 0.00 73 1013.8
20260906023741 28 253 0.0 0.0 0.00 0.00 0.00 71 1013.6
20260906023237 28 283 0.0 0.0 0.00 0.00 0.00 70 1013.5
20260906022732 28 263 0.0 0.0 0.00 0.00 0.00 69 1013.7
20260906022227 28 264 0.0 0.0 0.00 0.00 0.00 69 1013.5
20260906021723 28 258 0.0 0.0 0.00 0.00 0.00 69 1013.4
20260906021222 28 236 0.0 0.0 0.00 0.00 0.00 68 1013.2
20260906020717 28 243 0.0 0.0 0.00 0.00 0.00 68 1013.2
20260906020211 29 246 0.0 0.0 0.00 0.00 0.00 67 1013.1
20260906015706 29 246 0.0 0.0 0.00 0.00 0.00 65 1013.0
20260906015205 29 1 0.0 0.0 0.00 0.00 0.00 64 1013.0
20260906014705 29 33 0.0 0.0 0.00 0.00 0.00 64 1012.9
20260906014201 29 347 0.0 0.0 0.00 0.00 0.00 66 1012.7
20260906013657 30 325 0.0 0.0 0.00 0.00 0.00 65 1012.8
20260906013152 30 355 0.0 0.0 0.00 0.00 0.00 63 1013.1
20260906012651 30 307 0.0 0.0 0.00 0.00 0.00 61 1012.9
20260906012146 30 53 0.0 0.0 0.00 0.00 0.00 60 1012.7
20260906011642 30 35 0.0 0.0 0.00 0.00 0.00 62 1012.6
20260906011142 30 355 0.0 0.0 0.00 0.00 0.00 63 1012.7
20260906010637 30 11 0.0 0.0 0.00 0.00 0.00 63 1012.6
20260906010133 30 310 0.0 1.6 0.00 0.00 0.00 62 1012.7
20260906005632 30 25 1.6 1.6 0.00 0.00 0.00 61 1012.6
20260906005127 31 5 1.6 1.6 0.00 0.00 0.00 61 1012.5
20260906004626 31 346 1.6 1.6 0.00 0.00 0.00 61 1012.5
20260906004121 31 319 1.6 1.6 0.00 0.00 0.00 61 1012.3
20260906003616 32 237 0.0 0.0 0.00 0.00 0.00 59 1012.5
20260906003112 32 2 0.0 1.6 0.00 0.00 0.00 57 1012.5
20260906002607 32 235 0.0 0.0 0.00 0.00 0.00 57 1012.8
20260906002101 33 250 0.0 0.0 0.00 0.00 0.00 56 1012.5
20260906001556 33 164 0.0 0.0 0.00 0.00 0.00 54 1012.4
20260906001051 33 214 0.0 0.0 0.00 0.00 0.00 53 1012.3
20260906000547 34 185 0.0 0.0 0.00 0.00 0.00 53 1012.3
20260906000042 35 221 0.0 0.0 0.00 0.00 0.00 52 1012.2
20260905235536 35 190 0.0 0.0 0.00 0.00 0.00 49 1012.5
20260905235031 36 182 0.0 0.0 0.00 0.00 0.00 46 1012.3
20260905234526 36 209 0.0 0.0 0.00 0.00 0.00 44 1012.2
20260905234021 36 169 0.0 0.0 0.00 0.00 0.00 43 1012.3
20260905233516 36 170 0.0 0.0 0.00 0.00 0.00 44 1012.4
20260905233015 36 13 1.6 1.6 0.00 0.00 0.00 41 1012.4
20260905232511 37 233 0.0 0.0 0.00 0.00 0.00 42 1012.4
20260905232007 37 256 0.0 0.0 0.00 0.00 0.00 42 1012.3
20260905231502 37 292 3.2 3.2 0.00 0.00 0.00 41 1012.6
20260905230958 37 218 3.2 3.2 0.00 0.00 0.00 40 1012.6
20260905230456 37 255 1.6 1.6 0.00 0.00 0.00 39 1012.3
20260905225954 37 177 1.6 1.6 0.00 0.00 0.00 39 1012.0
20260905225450 37 194 0.0 1.6 0.00 0.00 0.00 39 1012.1
20260905224945 37 208 3.2 3.2 0.00 0.00 0.00 38 1012.4
20260905224440 38 336 1.6 3.2 0.00 0.00 0.00 38 1012.2
20260905223939 37 274 1.6 1.6 0.00 0.00 0.00 38 1012.4
20260905223437 38 264 3.2 3.2 0.00 0.00 0.00 38 1012.2
20260905222932 38 39 1.6 3.2 0.00 0.00 0.00 38 1012.5
20260905222432 38 336 4.8 4.8 0.00 0.00 0.00 37 1012.4
20260905221928 39 308 8.0 11.3 0.00 0.00 0.00 37 1012.3
20260905221424 39 44 3.2 3.2 0.00 0.00 0.00 36 1012.5
20260905220920 38 217 0.0 1.6 0.00 0.00 0.00 35 1012.2
20260905220416 39 264 4.8 8.0 0.00 0.00 0.00 35 1012.5
20260905215915 39 184 0.0 1.6 0.00 0.00 0.00 35 1012.5
20260905215411 39 170 0.0 1.6 0.00 0.00 0.00 35 1012.5
20260905214907 39 324 3.2 3.2 0.00 0.00 0.00 35 1012.5
20260905214403 40 132 4.8 4.8 0.00 0.00 0.00 35 1012.4
20260905213857 39 263 1.6 1.6 0.00 0.00 0.00 36 1012.7
20260905213354 39 324 1.6 3.2 0.00 0.00 0.00 36 1012.6
20260905212854 39 263 3.2 8.0 0.00 0.00 0.00 37 1012.4
20260905212354 38 210 0.0 0.0 0.00 0.00 0.00 38 1012.8
20260905211848 37 287 3.2 4.8 0.00 0.00 0.00 39 1012.6
20260905211343 38 233 4.8 4.8 0.00 0.00 0.00 37 1012.9
20260905210839 40 268 6.4 8.0 0.00 0.00 0.00 35 1012.8
20260905210334 39 200 1.6 3.2 0.00 0.00 0.00 36 1012.6
20260905205832 40 282 3.2 3.2 0.00 0.00 0.00 36 1012.9
20260905205327 39 62 0.0 1.6 0.00 0.00 0.00 35 1012.9
20260905204827 39 55 4.8 4.8 0.00 0.00 0.00 34 1012.9
20260905204323 38 162 0.0 1.6 0.00 0.00 0.00 35 1012.8
20260905203821 38 223 4.8 4.8 0.00 0.00 0.00 36 1012.9
20260905203318 40 203 1.6 3.2 0.00 0.00 0.00 34 1013.1
20260905202813 40 127 0.0 1.6 0.00 0.00 0.00 33 1013.1
20260905202308 39 174 0.0 1.6 0.00 0.00 0.00 34 1013.2
20260905201803 39 189 1.6 1.6 0.00 0.00 0.00 35 1013.2
20260905201259 39 285 3.2 3.2 0.00 0.00 0.00 35 1013.4
20260905200753 38 326 0.0 0.0 0.00 0.00 0.00 36 1013.4
20260905200249 39 278 3.2 8.0 0.00 0.00 0.00 36 1013.4
20260905195747 40 244 1.6 3.2 0.00 0.00 0.00 35 1013.5
20260905195242 40 214 1.6 3.2 0.00 0.00 0.00 35 1013.7
20260905194738 40 122 3.2 3.2 0.00 0.00 0.00 36 1013.5
20260905194237 40 132 3.2 3.2 0.00 0.00 0.00 35 1013.7
20260905193737 39 116 3.2 4.8 0.00 0.00 0.00 36 1013.8
20260905193231 40 129 3.2 3.2 0.00 0.00 0.00 35 1013.9
20260905192727 39 226 0.0 1.6 0.00 0.00 0.00 35 1013.8
20260905192223 38 275 4.8 4.8 0.00 0.00 0.00 36 1014.1
20260905191722 39 184 1.6 3.2 0.00 0.00 0.00 36 1014.1
20260905191220 39 349 3.2 4.8 0.00 0.00 0.00 35 1014.1
20260905190719 38 87 4.8 4.8 0.00 0.00 0.00 37 1014.1
20260905190218 40 280 4.8 4.8 0.00 0.00 0.00 36 1014.1
20260905185717 39 184 1.6 1.6 0.00 0.00 0.00 38 1014.4
20260905185212 38 178 3.2 3.2 0.00 0.00 0.00 40 1014.3
20260905184707 38 197 3.2 3.2 0.00 0.00 0.00 40 1014.3
20260905184206 38 194 6.4 8.0 0.00 0.00 0.00 38 1014.3
20260905183700 39 181 8.0 9.7 0.00 0.00 0.00 38 1014.4
20260905183155 39 159 4.8 4.8 0.00 0.00 0.00 38 1014.7
20260905182655 38 140 4.8 4.8 0.00 0.00 0.00 40 1014.6
20260905182154 38 160 0.0 1.6 0.00 0.00 0.00 37 1014.8
20260905181650 38 129 4.8 4.8 0.00 0.00 0.00 37 1015.0
20260905181148 38 215 1.6 1.6 0.00 0.00 0.00 42 1014.9
20260905180643 37 167 4.8 4.8 0.00 0.00 0.00 46 1014.9
20260905180138 38 125 4.8 4.8 0.00 0.00 0.00 45 1015.0
20260905175632 37 199 4.8 4.8 0.00 0.00 0.00 42 1014.9
20260905175128 37 165 3.2 3.2 0.00 0.00 0.00 49 1015.1
20260905174624 37 196 6.4 8.0 0.00 0.00 0.00 44 1015.2
20260905174119 37 176 3.2 3.2 0.00 0.00 0.00 47 1015.2
20260905173615 37 256 6.4 8.0 0.00 0.00 0.00 43 1015.3
20260905173110 36 165 1.6 3.2 0.00 0.00 0.00 49 1015.6
20260905172608 36 165 4.8 4.8 0.00 0.00 0.00 49 1015.5